{"data":{"norad_id":59504,"intl_designator":"2024-071W","name":"STARLINK-31535","alt_names":[],"object_type":"PAYLOAD","status":"ACTIVE","operator":null,"country":"US","launch_date":"2024-04-13","launch_site_code":"AFETR","launch_vehicle":null,"mission":null,"orbit_class":"UNKNOWN","rcs_meters":null,"size_class":null,"mass_kg":null,"dimensions":null,"purposes":["comms"],"wikipedia_slug":null,"has_3d_model":false,"image_url":null,"decayed_at":null,"tle_current":{"epoch":"2026-05-25T01:07:18.362784Z","epoch_age_seconds":77909,"freshness":"FRESH","line1":"1 59504U 24071W   26145.04674031  .00001043  00000+0  47401-4 0  9997","line2":"2 59504  43.0017 276.2843 0001180 273.7790  86.2926 15.27580192119797","mean_motion":15.27580192,"eccentricity":0.000118,"inclination_deg":43.0017,"raan_deg":276.2843,"arg_perigee_deg":273.779,"mean_anomaly_deg":86.2926,"bstar":4.7401e-5,"rev_number":11979,"period_min":94.26673686536,"perigee_km":482.23890123115,"apogee_km":483.85814101413,"semimajor_km":6861.1855211226,"source":"CELESTRAK","updated_at":"2026-05-25T13:38:18.973039Z"}}}